,,Stat6,,Stat2,,Stat8,,Stat9,,Stat10,,Wind1,,Wind1,
time,status,PA1M_AVG,status,PR1M_SUM,status,RH1M_AVG,status,SR1M_AVG,status,TA1M_AVG,status,W1dAve1m,status,W1sAve1m,
2006-02-12, 00:00:00,VALID,919.245,VALID,0,VALID,100,VALID,-0.0339617,VALID,19.6768,VALID,145,VALID,0.974355,
2006-02-12, 00:01:00,VALID,919.245,VALID,0,VALID,100,VALID,-0.0169808,VALID,19.6669,VALID,140,VALID,0.553571,
2006-02-12, 00:02:00,VALID,919.233,VALID,0,VALID,100,VALID,0,VALID,19.6505,VALID,128,VALID,1.10833,
2006-02-12, 00:03:00,VALID,919.235,VALID,0,VALID,100,VALID,-0.0339617,VALID,19.6378,VALID,150,VALID,0.783296,
2006-02-12, 00:04:00,VALID,919.234,VALID,0,VALID,100,VALID,-0.0679233,VALID,19.641,VALID,151,VALID,0.333854,
2006-02-12, 00:05:00,VALID,919.24,VALID,0,VALID,100,VALID,-0.0339617,VALID,19.6445,VALID,122,VALID,0.156436,
2006-02-12, 00:06:00,VALID,919.244,VALID,0,VALID,100,VALID,-0.0679233,VALID,19.6505,VALID,122,VALID,0,
2006-02-12, 00:07:00,VALID,919.247,VALID,0,VALID,100,VALID,-0.0339617,VALID,19.6639,VALID,122,VALID,0.161204,
2006-02-12, 00:08:00,VALID,919.241,VALID,0,VALID,100,VALID,-0.0679233,VALID,19.6734,VALID,122,VALID,0.0693109,
2006-02-12, 00:09:00,VALID,919.225,VALID,0,VALID,100,VALID,0,VALID,19.6763,VALID,122,VALID,0,
2006-02-12, 00:10:00,VALID,919.216,VALID,0,VALID,100,VALID,-0.0509425,VALID,19.6632,VALID,122,VALID,0,
2006-02-12, 00:11:00,VALID,919.209,VALID,0,VALID,100,VALID,-0.0169808,VALID,19.6505,VALID,122,VALID,0,
2006-02-12, 00:12:00,VALID,919.215,VALID,0,VALID,100,VALID,-0.0169808,VALID,19.6502,VALID,122,VALID,0.149503,
2006-02-12, 00:13:00,VALID,919.225,VALID,0,VALID,100,VALID,-0.0509425,VALID,19.6706,VALID,122,VALID,0.003125,
2006-02-12, 00:14:00,VALID,919.223,VALID,0,VALID,100,VALID,-0.0169808,VALID,19.6637,VALID,122,VALID,0.0225074,
2006-02-12, 00:15:00,VALID,919.226,VALID,0,VALID,100,VALID,-0.0339617,VALID,19.6669,VALID,122,VALID,0.222656,
2006-02-12, 00:16:00,VALID,919.216,VALID,0,VALID,100,VALID,-0.0509425,VALID,19.6475,VALID,141,VALID,0.546875,
2006-02-12, 00:17:00,VALID,919.201,VALID,0,VALID,100,VALID,-0.0509425,VALID,19.6381,VALID,148,VALID,0.486919,
2006-02-12, 00:18:00,VALID,919.195,VALID,0,VALID,100,VALID,-0.0339617,VALID,19.6351,VALID,148,VALID,0.480655,
2006-02-12, 00:19:00,VALID,919.167,VALID,0,VALID,100,VALID,-0.0509425,VALID,19.642,VALID,144,VALID,0.429142,
2006-02-12, 00:20:00,VALID,919.137,VALID,0,VALID,100,VALID,-0.0509425,VALID,19.6085,VALID,127,VALID,0.530878,
2006-02-12, 00:21:00,VALID,919.121,VALID,0,VALID,100,VALID,-0.0339617,VALID,19.5732,VALID,104,VALID,0.647485,
2006-02-12, 00:22:00,VALID,919.095,VALID,0,VALID,100,VALID,-0.0339617,VALID,19.5508,VALID,104,VALID,0.896835,
2006-02-12, 00:23:00,VALID,919.076,VALID,0,VALID,100,VALID,-0.0339617,VALID,19.5212,VALID,106,VALID,0.998047,
2006-02-12, 00:24:00,VALID,919.069,VALID,0,VALID,100,VALID,-0.0679233,VALID,19.512,VALID,98,VALID,0.81808,
2006-02-12, 00:25:00,VALID,919.045,VALID,0,VALID,100,VALID,-0.0509425,VALID,19.4956,VALID,106,VALID,0.823552,
2006-02-12, 00:26:00,VALID,919.033,VALID,0,VALID,100,VALID,-0.0169808,VALID,19.4926,VALID,118,VALID,1.03068,
2006-02-12, 00:27:00,VALID,919.02,VALID,0,VALID,100,VALID,-0.0679233,VALID,19.4824,VALID,145,VALID,0.992383,
2006-02-12, 00:28:00,VALID,919.036,VALID,0,VALID,100,VALID,0,VALID,19.5182,VALID,140,VALID,0.702172,
2006-02-12, 00:29:00,VALID,919.028,VALID,0,VALID,100,VALID,-0.0339617,VALID,19.5505,VALID,161,VALID,0.775073,
2006-02-12, 00:30:00,VALID,919.032,VALID,0,VALID,100,VALID,-0.0169808,VALID,19.5694,VALID,164,VALID,1.02798,
2006-02-12, 00:31:00,VALID,919.028,VALID,0,VALID,100,VALID,0,VALID,19.5988,VALID,175,VALID,0.745508,
2006-02-12, 00:32:00,VALID,919.044,VALID,0,VALID,100,VALID,-0.0339617,VALID,19.6214,VALID,184,VALID,0.625888,
2006-02-12, 00:33:00,VALID,919.051,VALID,0,VALID,100,VALID,-0.0169808,VALID,19.6276,VALID,189,VALID,0.62843,
2006-02-12, 00:34:00,VALID,919.041,VALID,0,VALID,100,VALID,-0.0849042,VALID,19.6274,VALID,195,VALID,0.398819,
2006-02-12, 00:35:00,VALID,919.041,VALID,0,VALID,100,VALID,-0.0169808,VALID,19.6505,VALID,192,VALID,0.250727,
2006-02-12, 00:36:00,VALID,919.039,VALID,0,VALID,100,VALID,-0.0339617,VALID,19.6445,VALID,196,VALID,0.288154,
2006-02-12, 00:37:01,VALID,919.042,VALID,0,VALID,100,VALID,-0.0339617,VALID,19.6308,VALID,228,VALID,0.342187,
2006-02-12, 00:38:00,VALID,919.045,VALID,0,VALID,100,VALID,-0.0509425,VALID,19.6311,VALID,228,VALID,0.0495427,
2006-02-12, 00:39:00,VALID,919.042,VALID,0,VALID,100,VALID,-0.0169808,VALID,19.6274,VALID,199,VALID,0.271662,
2006-02-12, 00:40:01,VALID,919.047,VALID,0,VALID,100,VALID,-0.0339617,VALID,19.6343,VALID,191,VALID,0.424361,
2006-02-12, 00:41:00,VALID,919.044,VALID,0,VALID,100,VALID,-0.0169808,VALID,19.6246,VALID,189,VALID,0.414063,
2006-02-12, 00:42:00,VALID,919.027,VALID,0,VALID,100,VALID,-0.0169808,VALID,19.6013,VALID,185,VALID,0.486328,
2006-02-12, 00:43:00,VALID,919.02,VALID,0,VALID,100,VALID,-0.0169808,VALID,19.6082,VALID,184,VALID,0.301758,
2006-02-12, 00:44:00,VALID,919.008,VALID,0,VALID,100,VALID,0,VALID,19.5757,VALID,184,VALID,0.152616,
2006-02-12, 00:45:00,VALID,918.988,VALID,0,VALID,100,VALID,-0.0169808,VALID,19.5796,VALID,160,VALID,0.420201,
2006-02-12, 00:46:01,VALID,918.961,VALID,0,VALID,100,VALID,-0.0169808,VALID,19.5665,VALID,129,VALID,0.635719,
2006-02-12, 00:47:00,VALID,918.933,VALID,0,VALID,100,VALID,-0.0169808,VALID,19.5406,VALID,120,VALID,0.543146,
2006-02-12, 00:48:00,VALID,918.921,VALID,0,VALID,100,VALID,0,VALID,19.5113,VALID,111,VALID,0.567708,
2006-02-12, 00:49:00,VALID,918.904,VALID,0,VALID,100,VALID,0,VALID,19.4887,VALID,72,VALID,0.673295,
2006-02-12, 00:50:00,VALID,918.886,VALID,0,VALID,100,VALID,0,VALID,19.4757,VALID,72,VALID,0.778646,
2006-02-12, 00:51:00,VALID,918.871,VALID,0,VALID,100,VALID,-0.0169808,VALID,19.4593,VALID,62,VALID,0.978237,
2006-02-12, 00:52:00,VALID,918.853,VALID,0,VALID,100,VALID,0,VALID,19.4372,VALID,54,VALID,1.05208,
2006-02-12, 00:53:01,VALID,918.835,VALID,0,VALID,100,VALID,0,VALID,19.4014,VALID,60,VALID,1.26136,
2006-02-12, 00:54:00,VALID,918.799,VALID,0,VALID,100,VALID,-0.0339617,VALID,19.379,VALID,60,VALID,1.41406,
2006-02-12, 00:55:00,VALID,918.79,VALID,0,VALID,100,VALID,0,VALID,19.3465,VALID,54,VALID,1.40879,
2006-02-12, 00:56:00,VALID,918.761,VALID,0,VALID,100,VALID,-0.0169808,VALID,19.3241,VALID,57,VALID,1.43304,
2006-02-12, 00:57:00,VALID,918.766,VALID,0,VALID,100,VALID,-0.0339617,VALID,19.3042,VALID,61,VALID,1.35417,
2006-02-12, 00:58:01,VALID,918.773,VALID,0,VALID,100,VALID,-0.0509425,VALID,19.2818,VALID,62,VALID,1.14082,
2006-02-12, 00:59:00,VALID,918.794,VALID,0,VALID,100,VALID,-0.0339617,VALID,19.2826,VALID,56,VALID,1.11086,
2006-02-12, 01:00:00,VALID,918.8,VALID,0,VALID,100,VALID,-0.0849042,VALID,19.2659,VALID,65,VALID,0.994182,
2006-02-12, 01:01:01,VALID,918.807,VALID,0,VALID,100,VALID,0,VALID,19.253,VALID,80,VALID,0.551897,
2006-02-12, 01:02:00,VALID,918.808,VALID,0,VALID,100,VALID,-0.0339617,VALID,19.2433,VALID,83,VALID,0.45846,
2006-02-12, 01:03:00,VALID,918.826,VALID,0,VALID,100,VALID,-0.0509425,VALID,19.2465,VALID,83,VALID,0.517401,
2006-02-12, 01:04:00,VALID,918.818,VALID,0,VALID,100,VALID,-0.0339617,VALID,19.2468,VALID,100,VALID,0.531822,
2006-02-12, 01:05:00,VALID,918.818,VALID,0,VALID,100,VALID,-0.0339617,VALID,19.2505,VALID,148,VALID,0.85625,
2006-02-12, 01:06:00,VALID,918.804,VALID,0,VALID,100,VALID,-0.0169808,VALID,19.2662,VALID,138,VALID,1.29447,
2006-02-12, 01:07:01,VALID,918.802,VALID,0,VALID,100,VALID,0,VALID,19.2985,VALID,139,VALID,0.736374,
2006-02-12, 01:08:01,VALID,918.786,VALID,0,VALID,100,VALID,-0.0509425,VALID,19.3179,VALID,143,VALID,1.00153,
2006-02-12, 01:09:00,VALID,918.784,VALID,0,VALID,100,VALID,-0.0509425,VALID,19.334,VALID,145,VALID,0.88548,
2006-02-12, 01:10:00,VALID,918.763,VALID,0,VALID,100,VALID,-0.0509425,VALID,19.3499,VALID,139,VALID,1.20781,
2006-02-12, 01:11:00,VALID,918.756,VALID,0,VALID,100,VALID,-0.0339617,VALID,19.3631,VALID,142,VALID,0.910326,
2006-02-12, 01:12:00,VALID,918.751,VALID,0,VALID,100,VALID,0,VALID,19.3758,VALID,143,VALID,1.03051,
2006-02-12, 01:13:00,VALID,918.731,VALID,0,VALID,100,VALID,-0.0339617,VALID,19.3987,VALID,171,VALID,0.814317,
2006-02-12, 01:14:00,VALID,918.732,VALID,0,VALID,100,VALID,-0.0339617,VALID,19.3982,VALID,174,VALID,1.05771,
2006-02-12, 01:15:01,VALID,918.718,VALID,0,VALID,100,VALID,0,VALID,19.4081,VALID,160,VALID,0.673651,
2006-02-12, 01:16:00,VALID,918.692,VALID,0,VALID,100,VALID,-0.0169808,VALID,19.4141,VALID,151,VALID,0.712109,
2006-02-12, 01:17:01,VALID,918.681,VALID,0,VALID,100,VALID,-0.0169808,VALID,19.4273,VALID,126,VALID,0.46076,
2006-02-12, 01:18:00,VALID,918.662,VALID,0,VALID,100,VALID,-0.0169808,VALID,19.424,VALID,145,VALID,0.652071,
2006-02-12, 01:19:01,VALID,918.656,VALID,0,VALID,100,VALID,0,VALID,19.4183,VALID,140,VALID,0.601744,
2006-02-12, 01:20:01,VALID,918.631,VALID,0,VALID,100,VALID,0,VALID,19.4079,VALID,128,VALID,0.746185,
2006-02-12, 01:21:00,VALID,918.606,VALID,0,VALID,100,VALID,-0.0169808,VALID,19.3917,VALID,118,VALID,0.860119,
2006-02-12, 01:22:00,VALID,918.591,VALID,0,VALID,100,VALID,-0.0339617,VALID,19.389,VALID,119,VALID,0.937137,
2006-02-12, 01:23:00,VALID,918.561,VALID,0,VALID,100,VALID,0,VALID,19.382,VALID,127,VALID,0.783333,
2006-02-12, 01:24:00,VALID,918.542,VALID,0,VALID,100,VALID,0,VALID,19.3788,VALID,124,VALID,0.768415,
2006-02-12, 01:25:01,VALID,918.522,VALID,0,VALID,100,VALID,-0.0169808,VALID,19.3987,VALID,122,VALID,0.634993,
2006-02-12, 01:26:01,VALID,918.498,VALID,0,VALID,100,VALID,-0.0169808,VALID,19.4109,VALID,127,VALID,0.80008,
2006-02-12, 01:27:00,VALID,918.5,VALID,0,VALID,100,VALID,-0.0339617,VALID,19.421,VALID,119,VALID,0.869226,
2006-02-12, 01:28:01,VALID,918.477,VALID,0,VALID,100,VALID,-0.0169808,VALID,19.4282,VALID,129,VALID,0.685082,
2006-02-12, 01:29:01,VALID,918.46,VALID,0,VALID,100,VALID,0,VALID,19.4307,VALID,101,VALID,0.695685,
2006-02-12, 01:30:00,VALID,918.443,VALID,0,VALID,100,VALID,0,VALID,19.4312,VALID,97,VALID,0.612038,
2006-02-12, 01:31:01,VALID,918.422,VALID,0,VALID,100,VALID,-0.0509425,VALID,19.4213,VALID,94,VALID,0.516016,
2006-02-12, 01:32:00,VALID,918.407,VALID,0,VALID,100,VALID,0,VALID,19.4146,VALID,83,VALID,0.526228,
2006-02-12, 01:33:00,VALID,918.392,VALID,0,VALID,100,VALID,-0.0169808,VALID,19.424,VALID,69,VALID,0.665698,
2006-02-12, 01:34:01,VALID,918.368,VALID,0,VALID,100,VALID,0.0169808,VALID,19.3984,VALID,69,VALID,0.677024,
2006-02-12, 01:35:00,VALID,918.358,VALID,0,VALID,100,VALID,-0.0169808,VALID,19.382,VALID,69,VALID,0.604611,
2006-02-12, 01:36:00,VALID,918.345,VALID,0,VALID,100,VALID,-0.0169808,VALID,19.346,VALID,69,VALID,0.47674,
2006-02-12, 01:37:00,VALID,918.304,VALID,0,VALID,100,VALID,0,VALID,19.3343,VALID,69,VALID,0.598474,
2006-02-12, 01:38:01,VALID,918.281,VALID,0,VALID,100,VALID,0,VALID,19.3082,VALID,63,VALID,0.833651,
2006-02-12, 01:39:00,VALID,918.259,VALID,0,VALID,100,VALID,0,VALID,19.2856,VALID,56,VALID,0.951527,
2006-02-12, 01:40:00,VALID,918.221,VALID,0,VALID,100,VALID,-0.0169808,VALID,19.2629,VALID,45,VALID,1.16927,
2006-02-12, 01:41:00,VALID,918.196,VALID,0,VALID,100,VALID,0.0169808,VALID,19.253,VALID,39,VALID,1.37441,
2006-02-12, 01:42:00,VALID,918.145,VALID,0,VALID,100,VALID,0,VALID,19.2304,VALID,42,VALID,1.49836,
2006-02-12, 01:43:00,VALID,918.095,VALID,0,VALID,100,VALID,0.0169808,VALID,19.2145,VALID,42,VALID,1.6676,
2006-02-12, 01:44:00,VALID,918.05,VALID,0,VALID,100,VALID,0.0339617,VALID,19.1981,VALID,43,VALID,1.39788,
2006-02-12, 01:45:01,VALID,918.008,VALID,0,VALID,100,VALID,0,VALID,19.1789,VALID,51,VALID,1.23103,
2006-02-12, 01:46:00,VALID,917.972,VALID,0,VALID,100,VALID,0.0339617,VALID,19.1558,VALID,60,VALID,1.25493,
2006-02-12, 01:47:00,VALID,917.949,VALID,0,VALID,100,VALID,0,VALID,19.1561,VALID,64,VALID,0.931021,
2006-02-12, 01:48:00,VALID,917.915,VALID,0,VALID,100,VALID,0.0169808,VALID,19.12,VALID,95,VALID,0.891667,
2006-02-12, 01:49:00,VALID,917.892,VALID,0,VALID,100,VALID,0.0169808,VALID,19.1245,VALID,110,VALID,0.694169,
2006-02-12, 01:50:00,VALID,917.879,VALID,0,VALID,100,VALID,0,VALID,19.1178,VALID,128,VALID,0.843192,
2006-02-12, 01:51:00,VALID,917.861,VALID,0,VALID,100,VALID,0,VALID,19.1011,VALID,140,VALID,1.01163,
2006-02-12, 01:52:00,VALID,917.841,VALID,0,VALID,100,VALID,-0.0169808,VALID,19.1011,VALID,145,VALID,1.03965,
2006-02-12, 01:53:00,VALID,917.831,VALID,0,VALID,100,VALID,-0.0169808,VALID,19.1143,VALID,125,VALID,0.775298,
2006-02-12, 01:54:01,VALID,917.807,VALID,0,VALID,100,VALID,0.0169808,VALID,19.1173,VALID,133,VALID,1.14081,
2006-02-12, 01:55:00,VALID,917.787,VALID,0,VALID,100,VALID,-0.0339617,VALID,19.1469,VALID,119,VALID,0.947917,
2006-02-12, 01:56:01,VALID,917.762,VALID,0,VALID,100,VALID,0,VALID,19.1464,VALID,111,VALID,0.908398,
2006-02-12, 01:57:00,VALID,917.743,VALID,0,VALID,100,VALID,-0.0169808,VALID,19.1466,VALID,111,VALID,0.736374,
2006-02-12, 01:58:00,VALID,917.711,VALID,0,VALID,100,VALID,-0.0169808,VALID,19.1531,VALID,110,VALID,0.80814,
2006-02-12, 01:59:01,VALID,917.694,VALID,0,VALID,100,VALID,0,VALID,19.1469,VALID,107,VALID,0.480114,
2006-02-12, 02:00:00,VALID,917.665,VALID,0,VALID,100,VALID,0,VALID,19.1369,VALID,107,VALID,0.479833,
2006-02-12, 02:01:00,VALID,917.651,VALID,0,VALID,100,VALID,0.0169808,VALID,19.1334,VALID,107,VALID,0.319618,
2006-02-12, 02:02:01,VALID,917.629,VALID,0,VALID,100,VALID,0,VALID,19.1011,VALID,107,VALID,0.193484,
2006-02-12, 02:03:00,VALID,917.613,VALID,0,VALID,100,VALID,0.0169808,VALID,19.0882,VALID,107,VALID,0.0554142,
2006-02-12, 02:04:00,VALID,917.592,VALID,0,VALID,100,VALID,0,VALID,19.0825,VALID,107,VALID,0.383721,
2006-02-12, 02:05:01,VALID,917.568,VALID,0,VALID,100,VALID,0,VALID,19.0822,VALID,108,VALID,0.533975,
2006-02-12, 02:06:00,VALID,917.541,VALID,0,VALID,100,VALID,-0.0339617,VALID,19.0889,VALID,109,VALID,0.50142,
2006-02-12, 02:07:00,VALID,917.523,VALID,0,VALID,100,VALID,0,VALID,19.0917,VALID,109,VALID,0.452398,
2006-02-12, 02:08:00,VALID,917.482,VALID,0,VALID,100,VALID,0,VALID,19.0817,VALID,109,VALID,0.286882,
2006-02-12, 02:09:01,VALID,917.462,VALID,0,VALID,100,VALID,0,VALID,19.079,VALID,109,VALID,0.103516,
2006-02-12, 02:10:01,VALID,917.456,VALID,0,VALID,100,VALID,-0.0169808,VALID,19.0691,VALID,109,VALID,0.181021,
2006-02-12, 02:11:00,VALID,917.443,VALID,0,VALID,100,VALID,0.0169808,VALID,19.0626,VALID,109,VALID,0.0569196,
2006-02-12, 02:12:01,VALID,917.435,VALID,0,VALID,100,VALID,-0.0169808,VALID,19.0439,VALID,109,VALID,0,
2006-02-12, 02:13:01,VALID,917.42,VALID,0,VALID,100,VALID,0,VALID,19.0372,VALID,109,VALID,0,
2006-02-12, 02:14:00,VALID,917.42,VALID,0,VALID,100,VALID,-0.0169808,VALID,19.034,VALID,109,VALID,0,
2006-02-12, 02:15:00,VALID,917.397,VALID,0,VALID,100,VALID,0.0169808,VALID,19.0243,VALID,109,VALID,0,
2006-02-12, 02:16:01,VALID,917.388,VALID,0,VALID,100,VALID,-0.0169808,VALID,19.0243,VALID,109,VALID,0,
2006-02-12, 02:17:01,VALID,917.382,VALID,0,VALID,100,VALID,0,VALID,19.0241,VALID,109,VALID,0,
2006-02-12, 02:18:00,VALID,917.368,VALID,0,VALID,100,VALID,0.0339617,VALID,19.0472,VALID,109,VALID,0.0339177,
2006-02-12, 02:19:00,VALID,917.349,VALID,0,VALID,100,VALID,0.0509425,VALID,19.0467,VALID,109,VALID,0.0573552,
2006-02-12, 02:20:00,VALID,917.326,VALID,0,VALID,100,VALID,0.0169808,VALID,19.0497,VALID,109,VALID,0.34702,
2006-02-12, 02:21:01,VALID,917.306,VALID,0,VALID,100,VALID,-0.0169808,VALID,19.0564,VALID,109,VALID,0.404433,
2006-02-12, 02:22:00,VALID,917.261,VALID,0,VALID,100,VALID,0,VALID,19.0347,VALID,87,VALID,0.716947,
2006-02-12, 02:23:00,VALID,917.216,VALID,0,VALID,100,VALID,-0.0849042,VALID,19.0283,VALID,75,VALID,0.875191,
2006-02-12, 02:24:01,VALID,917.18,VALID,0,VALID,100,VALID,-0.0339617,VALID,18.986,VALID,75,VALID,0.942116,
2006-02-12, 02:25:01,VALID,917.142,VALID,0,VALID,100,VALID,-0.0509425,VALID,18.9609,VALID,71,VALID,0.969512,
2006-02-12, 02:26:01,VALID,917.128,VALID,0,VALID,100,VALID,-0.0169808,VALID,18.9216,VALID,70,VALID,0.933594,
2006-02-12, 02:27:00,VALID,917.116,VALID,0,VALID,100,VALID,-0.0849042,VALID,18.9055,VALID,72,VALID,0.84933,
2006-02-12, 02:28:01,VALID,917.091,VALID,0,VALID,100,VALID,-0.0339617,VALID,18.8886,VALID,84,VALID,0.90816,
2006-02-12, 02:29:00,VALID,917.089,VALID,0,VALID,100,VALID,-0.0849042,VALID,18.8789,VALID,80,VALID,0.855015,
2006-02-12, 02:30:00,VALID,917.059,VALID,0,VALID,100,VALID,-0.0339617,VALID,18.8895,VALID,97,VALID,0.839026,
2006-02-12, 02:31:01,VALID,917.047,VALID,0,VALID,100,VALID,-0.0849042,VALID,18.902,VALID,101,VALID,0.745313,
2006-02-12, 02:32:00,VALID,917.026,VALID,0,VALID,100,VALID,-0.0679233,VALID,18.9025,VALID,97,VALID,0.657885,
2006-02-12, 02:33:01,VALID,916.994,VALID,0,VALID,100,VALID,-0.0679233,VALID,18.9025,VALID,77,VALID,0.340021,
2006-02-12, 02:34:01,VALID,916.97,VALID,0,VALID,100,VALID,-0.0849042,VALID,18.8958,VALID,73,VALID,0.118712,
2006-02-12, 02:35:01,VALID,916.938,VALID,0,VALID,100,VALID,-0.0509425,VALID,18.8893,VALID,73,VALID,0.259115,
2006-02-12, 02:36:01,VALID,916.908,VALID,0,VALID,100,VALID,-0.101885,VALID,18.8898,VALID,73,VALID,0.24272,
2006-02-12, 02:37:01,VALID,916.898,VALID,0,VALID,100,VALID,0.0169808,VALID,18.8918,VALID,73,VALID,0.262718,
2006-02-12, 02:38:01,VALID,916.878,VALID,0,VALID,100,VALID,0.0509425,VALID,18.8916,VALID,73,VALID,0.276677,
2006-02-12, 02:39:01,VALID,916.861,VALID,0,VALID,100,VALID,0,VALID,18.8715,VALID,73,VALID,0.251674,
2006-02-12, 02:40:01,VALID,916.85,VALID,0,VALID,100,VALID,0,VALID,18.8851,VALID,73,VALID,0.376143,
2006-02-12, 02:41:01,VALID,916.83,VALID,0,VALID,100,VALID,0.0509425,VALID,18.8983,VALID,73,VALID,0.438262,
2006-02-12, 02:42:01,VALID,916.805,VALID,0,VALID,100,VALID,0,VALID,18.8918,VALID,83,VALID,0.520064,
2006-02-12, 02:43:01,VALID,916.784,VALID,0,VALID,100,VALID,0.0339617,VALID,18.8814,VALID,121,VALID,0.852706,
2006-02-12, 02:44:01,VALID,916.762,VALID,0,VALID,100,VALID,0.0339617,VALID,18.8879,VALID,123,VALID,0.754573,
2006-02-12, 02:45:01,VALID,916.741,VALID,0,VALID,100,VALID,0.0509425,VALID,18.9015,VALID,118,VALID,0.621761,
2006-02-12, 02:46:01,VALID,916.709,VALID,0,VALID,100,VALID,0.0169808,VALID,18.908,VALID,117,VALID,0.877951,
2006-02-12, 02:47:01,VALID,916.693,VALID,0,VALID,100,VALID,0.0169808,VALID,18.911,VALID,96,VALID,0.503125,
2006-02-12, 02:48:01,VALID,916.669,VALID,0,VALID,100,VALID,0.0169808,VALID,18.8946,VALID,107,VALID,0.567224,
2006-02-12, 02:49:01,VALID,916.654,VALID,0,VALID,100,VALID,0,VALID,18.9013,VALID,112,VALID,0.555469,
2006-02-12, 02:50:01,VALID,916.643,VALID,0,VALID,100,VALID,0.0169808,VALID,18.9077,VALID,133,VALID,0.334517,
2006-02-12, 02:51:01,VALID,916.634,VALID,0,VALID,100,VALID,0.0339617,VALID,18.8943,VALID,133,VALID,0.434837,
2006-02-12, 02:52:01,VALID,916.615,VALID,0,VALID,100,VALID,0.0509425,VALID,18.901,VALID,133,VALID,0.579215,
2006-02-12, 02:53:01,VALID,916.587,VALID,0,VALID,100,VALID,0.0679233,VALID,18.911,VALID,133,VALID,0.461293,
2006-02-12, 02:54:01,VALID,916.586,VALID,0,VALID,100,VALID,0.0169808,VALID,18.9107,VALID,131,VALID,0.186047,
2006-02-12, 02:55:01,VALID,916.571,VALID,0,VALID,100,VALID,0.0339617,VALID,18.9144,VALID,121,VALID,0.322493,
2006-02-12, 02:56:01,VALID,916.569,VALID,0,VALID,100,VALID,0.0339617,VALID,18.9075,VALID,123,VALID,0.385476,
2006-02-12, 02:57:01,VALID,916.574,VALID,0,VALID,100,VALID,0.0169808,VALID,18.8981,VALID,131,VALID,0.336483,
2006-02-12, 02:58:01,VALID,916.573,VALID,0,VALID,100,VALID,0.0169808,VALID,18.8943,VALID,136,VALID,0.229539,
2006-02-12, 02:59:01,VALID,916.565,VALID,0,VALID,100,VALID,0.0509425,VALID,18.901,VALID,136,VALID,0.2375,
2006-02-12, 03:00:01,VALID,916.546,VALID,0,VALID,100,VALID,0.0169808,VALID,18.8981,VALID,133,VALID,0.255664,
2006-02-12, 03:01:01,VALID,916.521,VALID,0,VALID,100,VALID,0.0509425,VALID,18.8881,VALID,100,VALID,0.579649,
2006-02-12, 03:02:01,VALID,916.52,VALID,0,VALID,100,VALID,0.0169808,VALID,18.8821,VALID,98,VALID,0.561047,
2006-02-12, 03:03:01,VALID,916.527,VALID,0,VALID,100,VALID,0.0679233,VALID,18.869,VALID,93,VALID,0.568266,
2006-02-12, 03:04:01,VALID,916.525,VALID,0,VALID,100,VALID,0,VALID,18.8553,VALID,92,VALID,0.713299,
2006-02-12, 03:05:00,VALID,916.517,VALID,0,VALID,100,VALID,0.0169808,VALID,18.8724,VALID,92,VALID,0.647529,
2006-02-12, 03:06:00,VALID,916.505,VALID,0,VALID,100,VALID,0,VALID,18.8724,VALID,92,VALID,0.720508,
2006-02-12, 03:07:00,VALID,916.499,VALID,0,VALID,100,VALID,0.0169808,VALID,18.8727,VALID,105,VALID,0.897711,
2006-02-12, 03:08:00,VALID,916.491,VALID,0,VALID,100,VALID,0.0679233,VALID,18.872,VALID,111,VALID,0.86684,
2006-02-12, 03:09:00,VALID,916.488,VALID,0,VALID,100,VALID,0.0169808,VALID,18.8687,VALID,115,VALID,1.04539,
2006-02-12, 03:10:00,VALID,916.475,VALID,0,VALID,100,VALID,0.0339617,VALID,18.8558,VALID,111,VALID,1.02121,
2006-02-12, 03:11:00,VALID,916.456,VALID,0,VALID,100,VALID,0.0169808,VALID,18.8491,VALID,97,VALID,0.90625,
2006-02-12, 03:12:00,VALID,916.448,VALID,0,VALID,100,VALID,0.0509425,VALID,18.859,VALID,81,VALID,0.969815,
2006-02-12, 03:13:00,VALID,916.41,VALID,0,VALID,100,VALID,0.0339617,VALID,18.8558,VALID,78,VALID,0.907885,
2006-02-12, 03:14:00,VALID,916.401,VALID,0,VALID,100,VALID,0.0509425,VALID,18.8394,VALID,88,VALID,0.93109,
2006-02-12, 03:15:00,VALID,916.4,VALID,0,VALID,100,VALID,0.0339617,VALID,18.8426,VALID,89,VALID,0.732887,
2006-02-12, 03:16:00,VALID,916.384,VALID,0,VALID,100,VALID,0.0339617,VALID,18.833,VALID,97,VALID,0.836825,
2006-02-12, 03:17:00,VALID,916.369,VALID,0,VALID,100,VALID,0.0509425,VALID,18.8359,VALID,101,VALID,0.836285,
2006-02-12, 03:18:00,VALID,916.363,VALID,0,VALID,100,VALID,0.0679233,VALID,18.8357,VALID,94,VALID,1.01399,
2006-02-12, 03:19:00,VALID,916.352,VALID,0,VALID,100,VALID,0,VALID,18.8431,VALID,92,VALID,0.917468,
2006-02-12, 03:20:00,VALID,916.328,VALID,0,VALID,100,VALID,0.0339617,VALID,18.8267,VALID,94,VALID,0.911519,
2006-02-12, 03:21:00,VALID,916.319,VALID,0,VALID,100,VALID,0.0339617,VALID,18.8237,VALID,103,VALID,1.05632,
2006-02-12, 03:22:00,VALID,916.301,VALID,0,VALID,100,VALID,-0.0169808,VALID,18.824,VALID,108,VALID,0.900981,
2006-02-12, 03:23:00,VALID,916.311,VALID,0,VALID,100,VALID,-0.0509425,VALID,18.8272,VALID,108,VALID,0.815476,
2006-02-12, 03:24:00,VALID,916.308,VALID,0,VALID,100,VALID,-0.0339617,VALID,18.8401,VALID,112,VALID,1.13783,
2006-02-12, 03:25:00,VALID,916.319,VALID,0,VALID,100,VALID,-0.0339617,VALID,18.863,VALID,123,VALID,1.02126,
2006-02-12, 03:26:00,VALID,916.319,VALID,0,VALID,100,VALID,-0.0509425,VALID,18.8692,VALID,129,VALID,0.531597,
2006-02-12, 03:27:00,VALID,916.326,VALID,0,VALID,100,VALID,-0.0339617,VALID,18.8856,VALID,128,VALID,0.821915,
2006-02-12, 03:28:00,VALID,916.336,VALID,0,VALID,100,VALID,-0.0339617,VALID,18.8983,VALID,114,VALID,0.891533,
2006-02-12, 03:29:00,VALID,916.334,VALID,0,VALID,100,VALID,-0.0849042,VALID,18.9015,VALID,113,VALID,0.791797,
2006-02-12, 03:30:00,VALID,916.328,VALID,0,VALID,100,VALID,-0.0169808,VALID,18.8978,VALID,85,VALID,0.645952,
2006-02-12, 03:31:00,VALID,916.333,VALID,0,VALID,100,VALID,0,VALID,18.8953,VALID,57,VALID,0.542468,
2006-02-12, 03:32:00,VALID,916.324,VALID,0,VALID,100,VALID,-0.0509425,VALID,18.8824,VALID,56,VALID,0.805069,
2006-02-12, 03:33:00,VALID,916.314,VALID,0,VALID,100,VALID,-0.0339617,VALID,18.8732,VALID,55,VALID,0.835352,
2006-02-12, 03:34:00,VALID,916.306,VALID,0,VALID,100,VALID,-0.0509425,VALID,18.8563,VALID,62,VALID,0.911585,
2006-02-12, 03:35:00,VALID,916.297,VALID,0,VALID,100,VALID,-0.0849042,VALID,18.8531,VALID,67,VALID,0.722834,
2006-02-12, 03:36:00,VALID,916.289,VALID,0,VALID,100,VALID,-0.0339617,VALID,18.8471,VALID,95,VALID,0.778872,
2006-02-12, 03:37:00,VALID,916.289,VALID,0,VALID,100,VALID,-0.0339617,VALID,18.8732,VALID,109,VALID,0.740141,
2006-02-12, 03:38:00,VALID,916.285,VALID,0,VALID,100,VALID,-0.0679233,VALID,18.8697,VALID,127,VALID,1.02954,
2006-02-12, 03:39:00,VALID,916.275,VALID,0,VALID,100,VALID,-0.0339617,VALID,18.8953,VALID,136,VALID,0.918605,
2006-02-12, 03:40:00,VALID,916.272,VALID,0,VALID,100,VALID,-0.0679233,VALID,18.902,VALID,124,VALID,0.863009,
2006-02-12, 03:41:00,VALID,916.24,VALID,0,VALID,100,VALID,-0.0509425,VALID,18.9022,VALID,116,VALID,0.986683,
2006-02-12, 03:42:00,VALID,916.217,VALID,0,VALID,100,VALID,-0.0509425,VALID,18.8888,VALID,115,VALID,0.917614,